Regional Weather Roundup
Issued by NWS

Home | Current Version | Previous Version | Graphics & Text | Print | Product List | Glossary Off
Versions: 1 2 3 4 5 6 7 8 9 10 11 12 13 14 15 16 17 18 19 20 21 22 23 24 25 26 27

000
ASUS45 KBOU 142110
RWRCO

WEATHER ROUNDUP FOR COLORADO
NATIONAL WEATHER SERVICE DENVER/BOULDER CO
200 PM MST THU DEC 14 2017

NOTE: "FAIR" INDICATES FEW OR NO CLOUDS BELOW 12000 FEET WITH NO
SIGNIFICANT WEATHER AND/OR OBSTRUCTIONS TO VISIBILITY.

COZ001>005-013-030-031-142200-
...NORTHWEST COLORADO...

CITY           SKY/WX    TMP DP  RH WIND       PRES   REMARKS
CRAIG          FAIR      34  17  50 NW10      30.33R WCI  26
HAYDEN         NOT AVBL
MEEKER         PTSUNNY   33  19  56 NE10      30.31F WCI  25
RABBIT EARS PA LGT SNOW  14  12  92 W8G17     30.20R WCI   3
STEAMBOAT SPGS CLOUDY    32  19  59 SW13      30.27R WCI  22
WALDEN         PTSUNNY   23  10  58 NW16G22   30.26R WCI  10
$$

COZ006>008-011-142200-
...WEST CENTRAL VALLEYS...

CITY           SKY/WX    TMP DP  RH WIND       PRES   REMARKS
GRAND JUNCTION FAIR      47  15  27 N8        30.28S
MONTROSE       FAIR      41  22  46 SE7       30.28R
EAGLE          PTSUNNY   37  17  44 SW6       30.26S
RIFLE          FAIR      43  13  29 NW12G21   30.27S
DELTA          FAIR      49  17  27 SW3       30.23S
NUCLA          FAIR      46  16  29 CALM      30.25S
$$

COZ017>023-064>068-142200-
...SOUTHWEST COLORADO...

CITY           SKY/WX    TMP DP  RH WIND       PRES   REMARKS
DURANGO        FAIR      42  24  49 VRB6      30.13S
CORTEZ         FAIR      51  19  28 NW10      30.13S
PAGOSA SPRINGS FAIR      43  18  36 CALM      30.12S
TELLURIDE      FAIR      29  20  68 W9G17     30.21S WCI  21
WOLF CREEK PAS FAIR      23   9  54 NW5       30.20S WCI  17
$$

COZ009-010-012-014-032>034-037-058>063-142200-
...CENTRAL COLORADO...

CITY           SKY/WX    TMP DP  RH WIND       PRES   REMARKS
ASPEN          FAIR      34  18  52 NW12      30.20S WCI  25
BUENA VISTA    FAIR      35  10  35 NW21G29   30.13R WCI  24
COPPER MTN     NOT AVBL
BERTHOUD PASS  CLOUDY     7  -6  56 NW9G36    30.09R WCI  -7
COTTONWOOD PAS FAIR      34  19  55 N3        30.12F
GUNNISON       FAIR      37  21  52 SW15G21   30.15F
KREMMLING      PTSUNNY   37  16  41 NW8G16    30.25R
LEADVILLE      FAIR      22   5  48 N16G23    30.14F WCI   8
MONARCH PASS     N/A     19  18  93 W22G28    30.22F WCI   3
SALIDA         FAIR      36  22  55 CALM      30.21F
SUNLIGHT       PTSUNNY   18  14  86 W7        30.26S WCI   8
WILKERSON PASS FAIR      18  14  86 NW7G18    30.13F WCI   8
$$

COZ069>075-142200-
...SAN LUIS VALLEY/SANGRE DE CRISTO MOUNTAINS...

CITY           SKY/WX    TMP DP  RH WIND       PRES   REMARKS
ALAMOSA        FAIR      33  23  66 SW5       30.12F WCI  29
DEL NORTE      FAIR      33  24  71 E6        30.12F WCI  27
LA VETA PASS   FOG       18  16  93 N6          N/A  VSB<1/4 WCI   9
SAGUACHE       FAIR      34  27  75 S7        30.13S WCI  28
$$

COZ035-036-038>040-142200-
...NORTHERN COLORADO FRONT RANGE...

CITY           SKY/WX    TMP DP  RH WIND       PRES   REMARKS
DENVER INTL AP PTSUNNY   35  21  56 N14       30.20R WCI  26
DMNS CITY PARK NOT AVBL
AURORA         NOT AVBL
FRONT RANGE AP PTSUNNY   36  25  64 N10G24    30.22R
ERIE MUNI ARPT FAIR      39  23  53 NE9       30.26R
BOULDER MUN AP FAIR      39  21  48 S3        30.20R
CENTENNIAL     PTSUNNY   33  25  72 NE14      30.19R WCI  23
BROOMFIELD     PTSUNNY   36  27  69 E13       30.20R
FORT COLLINS   FAIR      42  15  33 N21G29    30.20R
LONGMONT       FAIR      42  19  40 CALM      30.21S
$$

COZ041-046-047-076>085-087-088-142200-
...PIKES PEAK/PALMER DIVIDE AND SOUTHERN FOOTHILLS...

CITY           SKY/WX    TMP DP  RH WIND       PRES   REMARKS
COLO. SPRINGS  PTSUNNY   35  22  58 W5        30.18F WCI  31
A. F. ACADEMY  NOT AVBL
SCHRIEVER AFB  NOT AVBL
CHEYENNE MTN   NOT AVBL
ELLICOTT         N/A    N/A N/A N/A N18       30.16F
FALCON         CLOUDY    31  16  52 N10G18    30.16F WCI  23
FORT CARSON    NOT AVBL
LIMON          PTSUNNY   31  24  75 N21G28    30.19R WCI  18
MONUMENT HILL  CLOUDY    28  19  69 N13       30.17F WCI  18
CANON CITY     PTSUNNY   41  28  60 SE6       30.17F
WALSENBURG     MOCLDY    36  27  69 SE7       30.18S
TRINIDAD       CLOUDY    35  25  66 E6        30.19S WCI  30
$$

COZ042>045-048>051-090-091-142200-
...NORTHEAST COLORADO...

CITY           SKY/WX    TMP DP  RH WIND       PRES   REMARKS
GREELEY ARPT   PTSUNNY   36  23  59 N22G30    30.23R
AKRON          CLOUDY    33  19  56 N24G37    30.18S WCI  20
BURLINGTON     CLOUDY    39  20  46 N25G39    30.16S
WRAY           CLOUDY    41  16  36 N25G35    30.17S
YUMA           MOCLDY    36  18  48 N21G33    30.18R
STERLING       PTSUNNY   37  19  48 N20G29    30.19S
HOLYOKE        FAIR      41  19  42 NW23G37   30.17R
FORT MORGAN    CLOUDY    35  23  60 N24G32    30.22S WCI  23
$$

COZ086-089-092>099-142200-
...SOUTHEAST COLORADO...

CITY           SKY/WX    TMP DP  RH WIND       PRES   REMARKS
PUEBLO         CLOUDY    42  26  53 W8        30.19S
LA JUNTA       CLOUDY    42  27  55 NW8       30.19S
LAMAR          LGT RAIN  39  28  64 N18G28    30.18S
SPRINGFIELD      N/A     37  31  78 N21       30.17S
$$




USA.gov is the U.S. government's official web portal to all federal, state and local government web resources and services.